Fort Leonard Wood, MO

9:34 AM CST on February 23, 2018 (GMT -0600)
Waynesville Regional At Forney Field

Weather History for KTBN - August, 2014

Change the Weather History Date:

Friday, August 29, 2014

  Actual Average Record
Temperature  
Mean Temperature 78 °F -  
Max Temperature 91 °F 85 °F 93 °F (2001)
Min Temperature 66 °F 66 °F 58 °F (2017)
Cooling Degree Days 13    
Growing Degree Days 28 (Base 50)    
Moisture  
Dew Point 68 °F    
Average Humidity 80    
Maximum Humidity 97    
Minimum Humidity 42    
Precipitation  
Precipitation 0.26 in - - ()
Sea Level Pressure  
Sea Level Pressure 29.91 in    
Wind  
Wind Speed 7 mph (South)    
Max Wind Speed 13 mph    
Max Gust Speed 38 mph    
Visibility 10 miles    
Events Rain    
Averages and records for this station are not official NWS values.
T = Trace of Precipitation, MM = Missing Value Source: NWS Daily Summary

Daily Weather History Graph

Daily Weather History Graph

Search for Another Location

Airport or City:

Trip Planner

Search our weather history database for the weather conditions in past years. The results will help you decide how hot, cold, wet, or windy it might be!

Date:

Astronomy

Aug. 29, 2014 Rise Set
Actual Time 6:36 AM CDT 7:42 PM CDT
Civil Twilight 6:09 AM CDT 8:09 PM CDT
Nautical Twilight 5:36 AM CDT 8:41 PM CDT
Astronomical Twilight 5:03 AM CDT 9:14 PM CDT
Moon 10:21 AM CDT (8/29) 9:45 PM CDT (8/29)
Length of Visible Light 13h 59m
Length of Day
13h 06m
Waxing Crescent, 15% of the Moon is Illuminated
Aug 29
Waxing Crescent
Sep 2
First Quarter
Sep 8
Full
Sep 15
Last Quarter
Sep 24
New

Hourly Weather History & Observations

Time (CDT) Temp. Heat Index Dew Point Humidity Pressure Visibility Wind Dir Wind Speed Gust Speed Precip Events Conditions
12:58 AM 73.4 °F - 65.1 °F 75% 29.94 in 10.0 mi SSE 5.8 mph - N/A   Clear
1:58 AM 71.2 °F - 65.1 °F 81% 29.93 in 10.0 mi SE 6.9 mph - N/A   Clear
2:58 AM 70.7 °F - 65.1 °F 82% 29.94 in 10.0 mi SSE 6.9 mph - N/A   Clear
3:58 AM 70.3 °F - 65.1 °F 83% 29.92 in 10.0 mi SSE 8.1 mph - N/A   Clear
4:58 AM 68.7 °F - 65.3 °F 89% 29.92 in 10.0 mi SSE 4.6 mph - N/A   Clear
5:58 AM 67.1 °F - 64.9 °F 93% 29.92 in 10.0 mi SSE 5.8 mph - N/A   Clear
6:58 AM 66.2 °F - 64.9 °F 96% 29.95 in 10.0 mi SE 8.1 mph - N/A   Clear
7:58 AM 70.0 °F - 65.5 °F 86% 29.95 in 10.0 mi SE 9.2 mph - N/A   Scattered Clouds
8:58 AM 75.0 °F - 66.2 °F 74% 29.94 in 10.0 mi SE 10.4 mph - N/A   Clear
9:58 AM 81.5 °F 83.7 °F 66.6 °F 60% 29.94 in 10.0 mi SSE 10.4 mph - N/A   Clear
10:58 AM 86.0 °F 88.2 °F 65.8 °F 51% 29.92 in 10.0 mi South 8.1 mph 19.6 mph N/A   Partly Cloudy
11:58 AM 86.7 °F 89.0 °F 66.0 °F 50% 29.91 in 10.0 mi South 5.8 mph 16.1 mph N/A   Mostly Cloudy
12:58 PM 88.9 °F 91.8 °F 66.7 °F 48% 29.88 in 10.0 mi Variable 4.6 mph 21.9 mph N/A   Mostly Cloudy
1:58 PM 90.7 °F 92.4 °F 64.4 °F 42% 29.85 in 10.0 mi South 10.4 mph 21.9 mph N/A   Partly Cloudy
2:26 PM 87.8 °F 89.4 °F 64.4 °F 46% 29.89 in 10.0 mi SW 12.7 mph 23.0 mph N/A Rain Light Rain
2:36 PM 78.8 °F - 71.6 °F 78% 29.91 in 0.8 mi South 11.5 mph 38.0 mph N/A Rain Heavy Rain
2:46 PM 73.4 °F - 69.8 °F 88% 29.91 in 3.0 mi SSE 10.4 mph - N/A Rain Light Rain
2:58 PM 73.2 °F - 70.9 °F 92% 29.86 in 10.0 mi Variable 5.8 mph - 0.26 in   Light Drizzle
3:15 PM 75.2 °F - 73.4 °F 94% 29.89 in 10.0 mi SW 3.5 mph - N/A   Scattered Clouds
3:58 PM 75.7 °F - 72.5 °F 90% 29.89 in 10.0 mi WSW 11.5 mph 16.1 mph 0.00 in   Scattered Clouds
4:58 PM 76.6 °F - 68.7 °F 76% 29.87 in 10.0 mi Variable 3.5 mph - N/A   Partly Cloudy
5:58 PM 76.6 °F - 70.2 °F 80% 29.87 in 10.0 mi SW 5.8 mph - N/A   Scattered Clouds
6:08 PM 75.2 °F - 69.8 °F 83% 29.89 in 10.0 mi SSW 4.6 mph - N/A   Light Drizzle
6:50 PM 73.4 °F - 71.6 °F 94% 29.89 in 10.0 mi SSW 3.5 mph - N/A   Partly Cloudy
6:58 PM 73.2 °F - 71.2 °F 93% 29.88 in 10.0 mi SW 2.3 mph - 0.00 in   Scattered Clouds
7:58 PM 72.0 °F - 68.7 °F 89% 29.90 in 10.0 mi South 5.8 mph - N/A   Overcast
8:58 PM 71.8 °F - 68.0 °F 88% 29.91 in 10.0 mi South 8.1 mph - N/A   Overcast
9:58 PM 72.3 °F - 69.8 °F 92% 29.92 in 10.0 mi SSW 6.9 mph - N/A   Mostly Cloudy
10:58 PM 71.6 °F - 70.3 °F 96% 29.93 in 10.0 mi South 4.6 mph - N/A   Partly Cloudy
11:58 PM 71.1 °F - 70.2 °F 97% 29.94 in 10.0 mi South 6.9 mph - N/A   Clear